Regional Weather Roundup
Issued by NWS Midland/Odessa, TX

Skip options and go directly to product.
Home | Oldest Version | Previous Version | Current Version | All | Text Only | Save Text | Print | Product List | Glossary On

Skip product version selection by date and time.   
984
ASUS44 KMAF 162210
RWRMAF
MIDLAND AREA WEATHER ROUNDUP
NATIONAL WEATHER SERVICE MIDLAND TX
500 PM CDT WED APR 16 2014

...IN SOUTHWEST TEXAS AND SOUTHEAST NEW MEXICO...

CITY           SKY/WX    TMP DP  RH WIND       PRES   REMARKS
ALPINE         MOSUNNY   83  15   8 SW15G21   29.87F
ANDREWS        FAIR      82  20  10 S12G17    29.75F
ARTESIA        SUNNY     84  10   6 S15G22    29.69F
BIG SPRING     SUNNY     82  26  12 SE18G24   29.79F
CARLSBAD       SUNNY     86  -6   3 W13G23    29.70F
DRYDEN           N/A     76  31  19 SE16      29.81F
FORT STOCKTON  SUNNY     83  19   9 SE24G33   29.73F
GUAD PASS      SUNNY     78   6   6 SW38G48   29.84F
HOBBS          SUNNY     81  14   8 S12G20    29.76F
MARFA          MOSUNNY   79  19  11 W12       29.87F
MIDLAND AIRPK  SUNNY     81  22  11 S13G18    29.76F
MIDLAND INTL   SUNNY     80  25  13 S15G22    29.76F
ODESSA         SUNNY     82  20  10 SE14G21   29.76F
PECOS          SUNNY     89  23   9 S6        29.69F
PRESIDIO       FAIR      83  14   7 CALM      29.77F
SEMINOLE       SUNNY     83  18   9 S12       29.76F
SNYDER         SUNNY     80  19  10 S16G22    29.77F
WINK           SUNNY     86  18   8 SE14G20   29.70F
$$
...OTHER STATIONS IN TEXAS...

CITY           SKY/WX    TMP DP  RH WIND       PRES   REMARKS
ABILENE        SUNNY     76  29  17 S20G33    29.82F
AMARILLO       MOSUNNY   77  11   8 NE9G21    29.77F
AUSTIN         MOSUNNY   72  47  40 SE17G28   29.94F
BROWNSVILLE    PTSUNNY   72  54  53 SE15      29.94F
CORPUS CHRISTI CLOUDY    70  51  51 SE17G23   29.98F
DALLAS FTW     MOSUNNY   68  38  33 S22G30    29.94F
DEL RIO        PTSUNNY   76  35  22 SE21G29   29.84F
EL PASO        MOSUNNY   83   1   4 W7G17     29.77F
HOUSTON INT    MOSUNNY   65  47  52 SE13G23   30.04F
LUBBOCK        MOSUNNY   82  12   7 S15G23    29.72F
SAN ANGELO     SUNNY     77  27  15 S16G26    29.82F
SAN ANTONIO    PTSUNNY   75  41  29 S15       29.93F
WACO           MOSUNNY   68  45  43 S16       29.97F
WICHITA FALLS  NOT AVBL
$$
...OTHER LOCATIONS IN NEW MEXICO...

CITY           SKY/WX    TMP DP  RH WIND       PRES   REMARKS
ALAMAGORDO     MOSUNNY   79   5   6 S10       29.78F
ALBUQUERQUE    CLOUDY    73   6   7 N5        29.79F
CANNON AFB     SUNNY     79   7   6 SW12      29.74F
CLOVIS         SUNNY     81  19  10 W15G22    29.77F
HOLLOMAN AFB   MOSUNNY   79   3   5 SE5       29.76F
ROSWELL        SUNNY     83  10   6 E10G22    29.70F
RUIDOSO        SUNNY     68   1   7 W13G21    29.90F
SANTA FE       CLOUDY    67   4   8 W18G29    29.82F
TRUTH OR CONSE SUNNY     80  -4   4 S7G23     29.73F
TUCUMCARI      MOSUNNY   76  20  12 E28G36    29.72F
$$

USA.gov is the U.S. government's official web portal to all federal, state and local government web resources and services.